Weather History for KBMT - November, 2013

Change the Weather History Date:

Saturday, November 23, 2013

  Actual Average (KBPT) Record (KBPT)
Temperature  
Mean Temperature 48 °F 60 °F  
Max Temperature 52 °F 69 °F 87 °F (1905)
Min Temperature 43 °F 50 °F 28 °F (1975)
Degree Days  
Heating Degree Days 17 7  
Month to date heating degree days 105  
Since 1 July heating degree days 139  
Cooling Degree Days 0 1  
Month to date cooling degree days 56  
Year to date cooling degree days 2847  
Moisture  
Dew Point 48 °F    
Average Humidity 98    
Maximum Humidity 100    
Minimum Humidity 81    
Precipitation  
Precipitation 0.00 in 0.14 in 2.90 in (1908)
Month to date precipitation 3.37  
Year to date precipitation 54.15  
Snow  
Snow 0.00 in 0.00 in 0.00 in ()
Month to date snowfall 0.0  
Since 1 July snowfall 0.0  
Since 1 September snowfall 0.0  
Snow Depth -    
Sea Level Pressure  
Sea Level Pressure 30.30 in    
Wind  
Wind Speed 13 mph (North)    
Max Wind Speed 22 mph    
Max Gust Speed 29 mph    
Visibility 9 miles    
Events Rain    
T = Trace of Precipitation, MM = Missing Value Source: NWS Daily Summary

Daily Weather History Graph

Daily Weather History Graph

Search for Another Location

Airport or City:

Trip Planner

Search our weather history database for the weather conditions in past years. The results will help you decide how hot, cold, wet, or windy it might be!

Date:

Astronomy

Nov. 23, 2013 Rise Set
Actual Time 6:48 AM CST 5:17 PM CST
Civil Twilight 6:23 AM CST 5:43 PM CST
Nautical Twilight 5:53 AM CST 6:12 PM CST
Astronomical Twilight 5:25 AM CST 6:41 PM CST
Moon 10:37 PM CST (11/23) 11:14 AM CST (11/23)
Length of Visible Light 11h 20m
Length of Day
10h 28m
Waning Gibbous, 69% of the Moon is Illuminated
Nov 23
Waning Gibbous
Nov 25
Last Quarter
Dec 2
New
Dec 9
First Quarter
Dec 17
Full

Hourly Weather History & Observations

Time (CST) Temp. Windchill Dew Point Humidity Pressure Visibility Wind Dir Wind Speed Gust Speed Precip Events Conditions
12:15 AM 49.3 °F - 49.3 °F 100% 30.24 in 10.0 mi NNW 12.7 mph - N/A   Overcast
12:35 AM 49.1 °F - 49.1 °F 100% 30.24 in 10.0 mi NNW 12.7 mph 19.6 mph N/A   Overcast
12:55 AM 49.1 °F - 49.1 °F 100% 30.24 in 10.0 mi NNW 10.4 mph - N/A   Overcast
1:15 AM 48.7 °F - 48.7 °F 100% 30.24 in 10.0 mi NNW 11.5 mph - N/A   Overcast
1:35 AM 48.7 °F - 48.7 °F 100% 30.24 in 10.0 mi North 12.7 mph - N/A   Overcast
1:55 AM 48.7 °F - 48.7 °F 100% 30.24 in 10.0 mi North 10.4 mph 16.1 mph N/A   Overcast
2:15 AM 48.6 °F - 48.6 °F 100% 30.24 in 10.0 mi NNW 11.5 mph - N/A   Overcast
2:35 AM 48.2 °F - 48.2 °F 100% 30.23 in 5.0 mi NNW 9.2 mph - N/A   Overcast
2:55 AM 48.2 °F - 48.2 °F 100% 30.24 in 4.0 mi NNW 12.7 mph - N/A   Overcast
3:15 AM 48.2 °F - 48.2 °F 100% 30.24 in 3.0 mi North 10.4 mph - N/A   Overcast
3:35 AM 48.2 °F - 48.2 °F 100% 30.23 in 3.0 mi North 12.7 mph - N/A   Overcast
3:55 AM 48.0 °F - 48.0 °F 100% 30.24 in 4.0 mi NNW 12.7 mph 18.4 mph N/A   Overcast
4:15 AM 48.2 °F - 48.2 °F 100% 30.24 in 4.0 mi NNW 11.5 mph - N/A   Overcast
4:35 AM 48.2 °F - 48.2 °F 100% 30.24 in 5.0 mi North 12.7 mph - N/A   Overcast
4:55 AM 48.2 °F - 48.2 °F 100% 30.24 in 7.0 mi North 12.7 mph 18.4 mph N/A   Overcast
5:15 AM 48.4 °F - 48.4 °F 100% 30.24 in 5.0 mi North 11.5 mph - N/A   Overcast
5:35 AM 48.6 °F - 48.6 °F 100% 30.25 in 4.0 mi North 11.5 mph - N/A   Overcast
5:55 AM 48.7 °F - 48.7 °F 100% 30.25 in 4.0 mi North 10.4 mph - N/A   Overcast
6:15 AM 49.1 °F - 49.1 °F 100% 30.25 in 4.0 mi NNW 9.2 mph - N/A   Overcast
6:35 AM 49.3 °F - 49.3 °F 100% 30.26 in 4.0 mi North 10.4 mph - N/A   Overcast
6:55 AM 49.6 °F - 49.6 °F 100% 30.26 in 7.0 mi North 11.5 mph - N/A   Overcast
7:15 AM 50.0 °F - 50.0 °F 100% 30.27 in 10.0 mi North 10.4 mph - N/A   Overcast
7:35 AM 50.7 °F - 50.7 °F 100% 30.28 in 7.0 mi North 10.4 mph - N/A   Overcast
7:55 AM 51.3 °F - 51.3 °F 100% 30.28 in 10.0 mi North 11.5 mph 16.1 mph N/A   Overcast
8:15 AM 52.0 °F - 52.0 °F 100% 30.29 in 10.0 mi North 11.5 mph - N/A   Overcast
8:35 AM 52.2 °F - 52.2 °F 100% 30.29 in 10.0 mi North 12.7 mph - N/A   Overcast
8:55 AM 51.8 °F - 51.8 °F 100% 30.30 in 10.0 mi North 15.0 mph - N/A   Overcast
9:15 AM 52.2 °F - 52.2 °F 100% 30.31 in 10.0 mi North 17.3 mph 20.7 mph N/A   Overcast
9:35 AM 52.0 °F - 52.0 °F 100% 30.31 in 10.0 mi North 15.0 mph 20.7 mph N/A   Overcast
9:55 AM 51.1 °F - 51.1 °F 100% 30.32 in 10.0 mi North 16.1 mph 21.9 mph N/A   Overcast
10:15 AM 51.3 °F - 51.1 °F 99% 30.32 in 10.0 mi North 15.0 mph 21.9 mph N/A   Overcast
10:35 AM 50.9 °F - 50.9 °F 100% 30.33 in 10.0 mi North 15.0 mph - N/A   Overcast
10:55 AM 50.2 °F - 50.2 °F 100% 30.32 in 7.0 mi North 16.1 mph 23.0 mph N/A   Overcast
11:15 AM 50.0 °F - 50.0 °F 100% 30.32 in 10.0 mi North 13.8 mph 18.4 mph N/A   Overcast
11:35 AM 50.5 °F - 50.2 °F 99% 30.31 in 10.0 mi North 18.4 mph 21.9 mph N/A   Overcast
11:55 AM 50.7 °F - 50.0 °F 97% 30.30 in 10.0 mi North 18.4 mph 23.0 mph N/A   Overcast
12:15 PM 50.9 °F - 50.9 °F 100% 30.30 in 10.0 mi North 10.4 mph - N/A   Overcast
12:35 PM 49.6 °F - 49.6 °F 100% 30.29 in 10.0 mi North 16.1 mph 20.7 mph N/A   Overcast
12:55 PM 49.6 °F - 49.6 °F 100% 30.29 in 10.0 mi North 12.7 mph 20.7 mph N/A   Overcast
1:15 PM 49.5 °F - 49.5 °F 100% 30.28 in 10.0 mi North 17.3 mph 23.0 mph N/A   Overcast
1:35 PM 49.1 °F - 49.1 °F 100% 30.28 in 10.0 mi North 19.6 mph 23.0 mph N/A   Light Drizzle
1:55 PM 49.3 °F - 49.3 °F 100% 30.28 in 10.0 mi North 17.3 mph 25.3 mph N/A   Overcast
2:15 PM 48.7 °F - 48.7 °F 100% 30.28 in 10.0 mi North 16.1 mph 21.9 mph N/A Rain Light Rain
2:35 PM 48.6 °F - 48.6 °F 100% 30.28 in 10.0 mi North 19.6 mph 24.2 mph N/A Rain Light Rain
2:55 PM 48.6 °F - 48.6 °F 100% 30.29 in 10.0 mi North 15.0 mph 25.3 mph N/A Rain Rain
3:15 PM 48.4 °F - 48.4 °F 100% 30.29 in 7.0 mi North 17.3 mph 20.7 mph N/A Rain Light Rain
3:35 PM 48.2 °F - 48.2 °F 100% 30.30 in 10.0 mi North 10.4 mph - N/A   Overcast
3:55 PM 47.8 °F - 47.8 °F 100% 30.30 in 10.0 mi North 13.8 mph 21.9 mph N/A   Light Drizzle
4:15 PM 47.3 °F - 47.3 °F 100% 30.31 in 10.0 mi North 12.7 mph - N/A Rain Rain
4:35 PM 47.3 °F - 47.3 °F 100% 30.31 in 10.0 mi North 13.8 mph 20.7 mph N/A   Overcast
4:55 PM 47.5 °F - 47.5 °F 100% 30.31 in 10.0 mi North 13.8 mph 23.0 mph N/A   Overcast
5:15 PM 47.5 °F - 47.5 °F 100% 30.31 in 10.0 mi North 17.3 mph 25.3 mph N/A   Overcast
5:35 PM 47.3 °F - 47.3 °F 100% 30.32 in 10.0 mi North 15.0 mph - N/A   Overcast
5:55 PM 47.3 °F - 47.3 °F 100% 30.32 in 10.0 mi NNE 16.1 mph 21.9 mph N/A   Overcast
6:15 PM 47.3 °F - 47.3 °F 100% 30.32 in 10.0 mi North 18.4 mph 23.0 mph N/A   Overcast
6:35 PM 47.5 °F - 47.5 °F 100% 30.33 in 10.0 mi North 11.5 mph 18.4 mph N/A   Overcast
6:55 PM 47.3 °F - 47.3 °F 100% 30.34 in 10.0 mi North 16.1 mph 19.6 mph N/A   Overcast
7:15 PM 47.3 °F - 47.3 °F 100% 30.34 in 10.0 mi North 13.8 mph 23.0 mph N/A   Overcast
7:35 PM 47.3 °F - 46.8 °F 98% 30.35 in 10.0 mi NNE 12.7 mph 24.2 mph N/A   Overcast
7:55 PM 46.9 °F - 46.4 °F 98% 30.36 in 10.0 mi North 11.5 mph - N/A   Overcast
8:15 PM 46.8 °F - 45.9 °F 97% 30.36 in 10.0 mi NNE 18.4 mph 24.2 mph N/A   Overcast
8:35 PM 46.4 °F 38.5 °F 44.6 °F 93% 30.36 in 10.0 mi NNE 21.9 mph 27.6 mph N/A   Overcast
8:55 PM 46.0 °F 39.6 °F 43.9 °F 92% 30.37 in 10.0 mi NNE 15.0 mph 25.3 mph N/A   Overcast
9:15 PM 45.9 °F 38.3 °F 42.8 °F 89% 30.37 in 10.0 mi NNE 19.6 mph 27.6 mph N/A   Overcast
9:35 PM 45.7 °F 38.6 °F 41.7 °F 86% 30.37 in 10.0 mi NNE 17.3 mph 28.8 mph N/A   Overcast
9:55 PM 45.5 °F 38.1 °F 41.5 °F 86% 30.38 in 10.0 mi NNE 18.4 mph 24.2 mph N/A   Overcast
10:15 PM 45.5 °F 38.6 °F 40.6 °F 83% 30.38 in 10.0 mi NNE 16.1 mph 23.0 mph N/A   Overcast
10:35 PM 45.0 °F 36.9 °F 39.7 °F 82% 30.37 in 10.0 mi NNE 20.7 mph 26.5 mph N/A   Overcast
10:55 PM 44.8 °F 37.1 °F 39.4 °F 81% 30.38 in 10.0 mi NNE 18.4 mph 24.2 mph N/A   Overcast
11:15 PM 44.2 °F 37.0 °F 39.4 °F 83% 30.38 in 10.0 mi NNE 16.1 mph 25.3 mph N/A   Mostly Cloudy
11:35 PM 44.1 °F 36.8 °F 39.6 °F 84% 30.38 in 10.0 mi NNE 16.1 mph 25.3 mph N/A   Mostly Cloudy
11:55 PM 43.9 °F 37.2 °F 39.0 °F 83% 30.38 in 10.0 mi NNE 13.8 mph 25.3 mph N/A   Overcast